Location: Bonn
(50.7330°N, 7.1000°E)
Time: 07:20:31
(UTC+02:00)

Cosmos 1933 Rocket - Visible Passes

Search period start: 22 August 2017 00:00
Search period end: 01 September 2017 00:00
Orbit: 608 x 629 km, 82.5° (Epoch: 21 August)

Date Brightness Start Highest point End Pass type
(mag) Time Alt. Az. Time Alt. Az. Time Alt. Az.
22 Aug 5.0 04:04:42 10° N 04:08:54 38° ENE 04:13:04 10° SE visible
22 Aug 4.6 05:42:52 10° NNW 05:46:37 26° W 05:50:19 10° SW visible
23 Aug 4.0 04:21:48 10° N 04:26:16 65° ENE 04:30:40 10° SSE visible
24 Aug 6.3 03:02:20 10° NNE 03:05:04 16° ENE 03:07:48 10° E visible
24 Aug 3.5 04:39:02 10° NNW 04:43:31 74° W 04:47:30 13° S visible
25 Aug 5.7 03:18:55 10° NNE 03:22:37 25° ENE 03:26:17 10° ESE visible
25 Aug 4.0 04:56:27 10° NNW 05:00:41 42° W 05:03:44 17° SSW visible
26 Aug 4.8 03:35:51 10° N 03:40:05 40° ENE 03:42:58 18° SE visible
26 Aug 4.7 05:14:04 10° NNW 05:17:45 25° W 05:20:04 17° SW visible
27 Aug 6.6 02:18:13 10° NE 02:18:36 10° ENE 02:19:00 10° ENE visible
27 Aug 3.8 03:52:57 10° N 03:57:25 68° ENE 03:59:24 32° SSE visible
27 Aug 5.3 05:32:05 10° NW 05:34:43 16° W 05:36:29 13° WSW visible
28 Aug 6.2 02:33:26 10° NNE 02:36:15 16° ENE 02:38:46 11° E visible
28 Aug 3.5 04:10:12 10° NNW 04:14:40 71° W 04:15:52 46° SSW visible
29 Aug 5.5 02:50:04 10° NNE 02:53:47 25° ENE 02:55:18 21° E visible
29 Aug 4.0 04:27:37 10° NNW 04:31:49 41° W 04:32:25 39° WSW visible
30 Aug 4.6 03:06:59 10° N 03:11:14 41° ENE 03:11:55 38° E visible
30 Aug 4.7 04:45:16 10° NNW 04:48:52 25° W 04:49:01 24° W visible
31 Aug 6.4 01:48:59 10° NE 01:49:47 10° ENE 01:50:36 10° ENE visible
31 Aug 3.7 03:24:06 10° N 03:28:33 70° ENE 03:28:33 70° ENE visible
31 Aug 5.4 05:03:20 10° NW 05:05:40 15° W 05:05:40 15° W visible
